iso_date,epoch_date,Year,Hour,Min,DOY,POS_DOY,Lat,Lon,BP,Ts,Ta,has_bp,has_ts,has_ta,BuoyID,Buoy_Type,Buoy_Owner,Logistics,Hemisphere
2018-03-22T00:00:00Z,1521676800,2018,0,0,81.0,81.0,50.0006,-179.8712,1003.4,3.83,-999.0,yes,yes,no,300234064807200,BD2GI,AOML,WESTWOOD_COLUMBIA,North
2018-03-22T01:00:28Z,1521680429,2018,1,0,81.042,81.042,50.0062,-179.8624,1001.6,3.84,-999.0,yes,yes,no,300234064807200,BD2GI,AOML,WESTWOOD_COLUMBIA,North
2018-03-22T01:59:31Z,1521683971,2018,2,0,81.083,81.083,50.012,-179.854,1000.0,3.83,-999.0,yes,yes,no,300234064807200,BD2GI,AOML,WESTWOOD_COLUMBIA,North
2018-03-22T03:00:00Z,1521687600,2018,3,0,81.125,81.125,50.0218,-179.8398,999.5,3.83,-999.0,yes,yes,no,300234064807200,BD2GI,AOML,WESTWOOD_COLUMBIA,North
2018-03-22T04:00:28Z,1521691229,2018,4,0,81.167,81.167,50.0206,-179.821,1000.6,3.84,-999.0,yes,yes,no,300234064807200,BD2GI,AOML,WESTWOOD_COLUMBIA,North
2018-03-22T04:59:31Z,1521694771,2018,5,0,81.208,81.208,50.0262,-179.8008,1003.4,3.83,-999.0,yes,yes,no,300234064807200,BD2GI,AOML,WESTWOOD_COLUMBIA,North
2018-03-22T06:00:00Z,1521698400,2018,6,0,81.25,81.25,50.0208,-179.7918,1006.0,3.79,-999.0,yes,yes,no,300234064807200,BD2GI,AOML,WESTWOOD_COLUMBIA,North
2018-03-22T07:00:28Z,1521702029,2018,7,0,81.292,81.292,50.0136,-179.7772,1008.1,3.77,-999.0,yes,yes,no,300234064807200,BD2GI,AOML,WESTWOOD_COLUMBIA,North
2018-03-22T07:59:31Z,1521705571,2018,8,0,81.333,81.333,50.0054,-179.7644,1009.8,3.75,-999.0,yes,yes,no,300234064807200,BD2GI,AOML,WESTWOOD_COLUMBIA,North
2018-03-23T16:59:31Z,1521824371,2018,17,0,82.708,82.708,50.0008,-179.6652,1016.9,3.8,-999.0,yes,yes,no,300234064807200,BD2GI,AOML,WESTWOOD_COLUMBIA,North
2018-03-23T18:00:00Z,1521828000,2018,18,0,82.75,82.75,50.0034,-179.6624,1016.7,3.8,-999.0,yes,yes,no,300234064807200,BD2GI,AOML,WESTWOOD_COLUMBIA,North
2018-03-23T21:00:00Z,1521838800,2018,21,0,82.875,82.875,50.0008,-179.6472,1013.9,3.8,-999.0,yes,yes,no,300234064807200,BD2GI,AOML,WESTWOOD_COLUMBIA,North
2018-03-24T00:00:00Z,1521849600,2018,0,0,83.0,83.0,50.0026,-179.6588,1008.7,3.83,-999.0,yes,yes,no,300234064807200,BD2GI,AOML,WESTWOOD_COLUMBIA,North
2018-03-24T01:00:28Z,1521853229,2018,1,0,83.042,83.042,50.0114,-179.6594,1005.9,3.83,-999.0,yes,yes,no,300234064807200,BD2GI,AOML,WESTWOOD_COLUMBIA,North
2018-03-24T01:59:31Z,1521856771,2018,2,0,83.083,83.083,50.021,-179.6528,1003.4,3.83,-999.0,yes,yes,no,300234064807200,BD2GI,AOML,WESTWOOD_COLUMBIA,North
2018-03-24T03:00:00Z,1521860400,2018,3,0,83.125,83.125,50.0298,-179.6414,1001.2,3.84,-999.0,yes,yes,no,300234064807200,BD2GI,AOML,WESTWOOD_COLUMBIA,North
2018-03-24T04:00:28Z,1521864029,2018,4,0,83.167,83.167,50.0446,-179.6266,999.5,3.85,-999.0,yes,yes,no,300234064807200,BD2GI,AOML,WESTWOOD_COLUMBIA,North
2018-03-24T04:59:31Z,1521867571,2018,5,0,83.208,83.208,50.0544,-179.614,997.8,3.85,-999.0,yes,yes,no,300234064807200,BD2GI,AOML,WESTWOOD_COLUMBIA,North
2018-03-24T06:00:00Z,1521871200,2018,6,0,83.25,83.25,50.0606,-179.5948,996.6,3.86,-999.0,yes,yes,no,300234064807200,BD2GI,AOML,WESTWOOD_COLUMBIA,North
2018-03-24T07:00:28Z,1521874829,2018,7,0,83.292,83.292,50.062,-179.5762,995.5,3.86,-999.0,yes,yes,no,300234064807200,BD2GI,AOML,WESTWOOD_COLUMBIA,North
2018-03-24T07:59:31Z,1521878371,2018,8,0,83.333,83.333,50.06,-179.5606,994.9,3.87,-999.0,yes,yes,no,300234064807200,BD2GI,AOML,WESTWOOD_COLUMBIA,North
2018-03-24T09:00:00Z,1521882000,2018,9,0,83.375,83.375,50.0546,-179.5504,994.0,3.87,-999.0,yes,yes,no,300234064807200,BD2GI,AOML,WESTWOOD_COLUMBIA,North
2018-03-24T10:00:28Z,1521885629,2018,10,0,83.417,83.417,50.0432,-179.5406,993.3,3.88,-999.0,yes,yes,no,300234064807200,BD2GI,AOML,WESTWOOD_COLUMBIA,North
2018-03-24T10:59:31Z,1521889171,2018,11,0,83.458,83.458,50.0378,-179.5504,992.9,3.89,-999.0,yes,yes,no,300234064807200,BD2GI,AOML,WESTWOOD_COLUMBIA,North
2018-03-24T12:00:00Z,1521892800,2018,12,0,83.5,83.5,50.0334,-179.5558,992.7,3.89,-999.0,yes,yes,no,300234064807200,BD2GI,AOML,WESTWOOD_COLUMBIA,North
2018-03-24T13:00:28Z,1521896429,2018,13,0,83.542,83.542,50.0312,-179.5642,992.8,3.9,-999.0,yes,yes,no,300234064807200,BD2GI,AOML,WESTWOOD_COLUMBIA,North
2018-03-24T13:59:31Z,1521899971,2018,14,0,83.583,83.583,50.0326,-179.5738,992.7,3.9,-999.0,yes,yes,no,300234064807200,BD2GI,AOML,WESTWOOD_COLUMBIA,North
2018-03-24T15:00:00Z,1521903600,2018,15,0,83.625,83.625,50.0362,-179.5816,992.9,3.9,-999.0,yes,yes,no,300234064807200,BD2GI,AOML,WESTWOOD_COLUMBIA,North
2018-03-24T16:00:28Z,1521907229,2018,16,0,83.667,83.667,50.0422,-179.5882,993.9,3.89,-999.0,yes,yes,no,300234064807200,BD2GI,AOML,WESTWOOD_COLUMBIA,North
2018-03-24T16:59:31Z,1521910771,2018,17,0,83.708,83.708,50.05,-179.591,995.1,3.89,-999.0,yes,yes,no,300234064807200,BD2GI,AOML,WESTWOOD_COLUMBIA,North
2018-03-24T18:00:00Z,1521914400,2018,18,0,83.75,83.75,50.054,-179.59,996.3,3.89,-999.0,yes,yes,no,300234064807200,BD2GI,AOML,WESTWOOD_COLUMBIA,North
2018-03-24T19:00:28Z,1521918029,2018,19,0,83.792,83.792,50.0562,-179.5816,997.0,3.89,-999.0,yes,yes,no,300234064807200,BD2GI,AOML,WESTWOOD_COLUMBIA,North
2018-03-24T19:59:31Z,1521921571,2018,20,0,83.833,83.833,50.0556,-179.5734,997.8,3.9,-999.0,yes,yes,no,300234064807200,BD2GI,AOML,WESTWOOD_COLUMBIA,North
2018-03-24T21:00:00Z,1521925200,2018,21,0,83.875,83.875,50.0498,-179.5628,999.4,3.91,-999.0,yes,yes,no,300234064807200,BD2GI,AOML,WESTWOOD_COLUMBIA,North
2018-03-24T22:00:28Z,1521928829,2018,22,0,83.917,83.917,50.0474,-179.5626,1000.2,3.91,-999.0,yes,yes,no,300234064807200,BD2GI,AOML,WESTWOOD_COLUMBIA,North
2018-03-24T22:59:31Z,1521932371,2018,23,0,83.958,83.958,50.0364,-179.562,1001.0,3.92,-999.0,yes,yes,no,300234064807200,BD2GI,AOML,WESTWOOD_COLUMBIA,North
2018-03-25T00:00:00Z,1521936000,2018,0,0,84.0,84.0,50.0298,-179.565,1001.6,3.92,-999.0,yes,yes,no,300234064807200,BD2GI,AOML,WESTWOOD_COLUMBIA,North
2018-03-25T01:00:28Z,1521939629,2018,1,0,84.042,84.042,50.0234,-179.5734,1002.0,3.93,-999.0,yes,yes,no,300234064807200,BD2GI,AOML,WESTWOOD_COLUMBIA,North
2018-03-25T01:59:31Z,1521943171,2018,2,0,84.083,84.083,50.0202,-179.5808,1002.3,3.93,-999.0,yes,yes,no,300234064807200,BD2GI,AOML,WESTWOOD_COLUMBIA,North
2018-03-25T03:00:00Z,1521946800,2018,3,0,84.125,84.125,50.0196,-179.5882,1002.5,3.94,-999.0,yes,yes,no,300234064807200,BD2GI,AOML,WESTWOOD_COLUMBIA,North
2018-03-25T04:00:28Z,1521950429,2018,4,0,84.167,84.167,50.0212,-179.596,1002.7,3.93,-999.0,yes,yes,no,300234064807200,BD2GI,AOML,WESTWOOD_COLUMBIA,North
2018-03-25T04:59:31Z,1521953971,2018,5,0,84.208,84.208,50.025,-179.603,1003.2,3.93,-999.0,yes,yes,no,300234064807200,BD2GI,AOML,WESTWOOD_COLUMBIA,North
2018-03-25T06:00:00Z,1521957600,2018,6,0,84.25,84.25,50.0278,-179.6084,1003.6,3.88,-999.0,yes,yes,no,300234064807200,BD2GI,AOML,WESTWOOD_COLUMBIA,North
2018-03-25T07:00:28Z,1521961229,2018,7,0,84.292,84.292,50.031,-179.6138,1004.2,3.87,-999.0,yes,yes,no,300234064807200,BD2GI,AOML,WESTWOOD_COLUMBIA,North
2018-03-25T07:59:31Z,1521964771,2018,8,0,84.333,84.333,50.0338,-179.6154,1005.0,3.86,-999.0,yes,yes,no,300234064807200,BD2GI,AOML,WESTWOOD_COLUMBIA,North
2018-03-25T09:00:00Z,1521968400,2018,9,0,84.375,84.375,50.0358,-179.6154,1005.2,3.85,-999.0,yes,yes,no,300234064807200,BD2GI,AOML,WESTWOOD_COLUMBIA,North
2018-03-25T10:00:28Z,1521972029,2018,10,0,84.417,84.417,50.0374,-179.6148,1005.2,3.85,-999.0,yes,yes,no,300234064807200,BD2GI,AOML,WESTWOOD_COLUMBIA,North
2018-03-25T10:59:31Z,1521975571,2018,11,0,84.458,84.458,50.0372,-179.616,1005.3,3.84,-999.0,yes,yes,no,300234064807200,BD2GI,AOML,WESTWOOD_COLUMBIA,North
2018-03-25T12:00:00Z,1521979200,2018,12,0,84.5,84.5,50.038,-179.6194,1005.5,3.84,-999.0,yes,yes,no,300234064807200,BD2GI,AOML,WESTWOOD_COLUMBIA,North
2018-03-25T13:00:28Z,1521982829,2018,13,0,84.542,84.542,50.0386,-179.6224,1005.6,3.83,-999.0,yes,yes,no,300234064807200,BD2GI,AOML,WESTWOOD_COLUMBIA,North
2018-03-25T13:59:31Z,1521986371,2018,14,0,84.583,84.583,50.0398,-179.6258,1005.6,3.82,-999.0,yes,yes,no,300234064807200,BD2GI,AOML,WESTWOOD_COLUMBIA,North
2018-03-25T15:00:00Z,1521990000,2018,15,0,84.625,84.625,50.0406,-179.6284,1005.5,3.82,-999.0,yes,yes,no,300234064807200,BD2GI,AOML,WESTWOOD_COLUMBIA,North
2018-03-25T16:00:28Z,1521993629,2018,16,0,84.667,84.667,50.0462,-179.6258,1005.6,3.82,-999.0,yes,yes,no,300234064807200,BD2GI,AOML,WESTWOOD_COLUMBIA,North
2018-03-25T16:59:31Z,1521997171,2018,17,0,84.708,84.708,50.047,-179.6342,1005.9,3.81,-999.0,yes,yes,no,300234064807200,BD2GI,AOML,WESTWOOD_COLUMBIA,North
2018-03-25T18:00:00Z,1522000800,2018,18,0,84.75,84.75,50.0444,-179.6326,1006.0,3.81,-999.0,yes,yes,no,300234064807200,BD2GI,AOML,WESTWOOD_COLUMBIA,North
2018-03-25T19:00:28Z,1522004429,2018,19,0,84.792,84.792,50.0432,-179.6352,1006.2,3.81,-999.0,yes,yes,no,300234064807200,BD2GI,AOML,WESTWOOD_COLUMBIA,North
2018-03-25T19:59:31Z,1522007971,2018,20,0,84.833,84.833,50.0418,-179.64,1006.4,3.81,-999.0,yes,yes,no,300234064807200,BD2GI,AOML,WESTWOOD_COLUMBIA,North
2018-03-25T21:00:00Z,1522011600,2018,21,0,84.875,84.875,50.0414,-179.6456,1006.8,3.82,-999.0,yes,yes,no,300234064807200,BD2GI,AOML,WESTWOOD_COLUMBIA,North
2018-03-25T22:00:28Z,1522015229,2018,22,0,84.917,84.917,50.0416,-179.6488,1007.0,3.83,-999.0,yes,yes,no,300234064807200,BD2GI,AOML,WESTWOOD_COLUMBIA,North
2018-03-25T22:59:31Z,1522018771,2018,23,0,84.958,84.958,50.0416,-179.6506,1007.2,3.86,-999.0,yes,yes,no,300234064807200,BD2GI,AOML,WESTWOOD_COLUMBIA,North
2018-03-26T00:00:00Z,1522022400,2018,0,0,85.0,85.0,50.0418,-179.6552,1007.2,3.86,-999.0,yes,yes,no,300234064807200,BD2GI,AOML,WESTWOOD_COLUMBIA,North
2018-03-26T01:00:28Z,1522026029,2018,1,0,85.042,85.042,50.0428,-179.6598,1007.3,3.85,-999.0,yes,yes,no,300234064807200,BD2GI,AOML,WESTWOOD_COLUMBIA,North
2018-03-26T01:59:31Z,1522029571,2018,2,0,85.083,85.083,50.0442,-179.6632,1007.1,3.87,-999.0,yes,yes,no,300234064807200,BD2GI,AOML,WESTWOOD_COLUMBIA,North
2018-03-26T03:00:00Z,1522033200,2018,3,0,85.125,85.125,50.0464,-179.6636,1007.1,3.88,-999.0,yes,yes,no,300234064807200,BD2GI,AOML,WESTWOOD_COLUMBIA,North
2018-03-26T04:00:28Z,1522036829,2018,4,0,85.167,85.167,50.0486,-179.6628,1007.4,3.87,-999.0,yes,yes,no,300234064807200,BD2GI,AOML,WESTWOOD_COLUMBIA,North
2018-03-26T04:59:31Z,1522040371,2018,5,0,85.208,85.208,50.0526,-179.6608,1007.5,3.86,-999.0,yes,yes,no,300234064807200,BD2GI,AOML,WESTWOOD_COLUMBIA,North
2018-03-26T06:00:00Z,1522044000,2018,6,0,85.25,85.25,50.0572,-179.6558,1007.7,3.86,-999.0,yes,yes,no,300234064807200,BD2GI,AOML,WESTWOOD_COLUMBIA,North
2018-03-26T07:00:28Z,1522047629,2018,7,0,85.292,85.292,50.059,-179.6502,1008.1,3.85,-999.0,yes,yes,no,300234064807200,BD2GI,AOML,WESTWOOD_COLUMBIA,North
2018-03-26T07:59:31Z,1522051171,2018,8,0,85.333,85.333,50.058,-179.6474,1008.7,3.85,-999.0,yes,yes,no,300234064807200,BD2GI,AOML,WESTWOOD_COLUMBIA,North
2018-03-26T09:00:00Z,1522054800,2018,9,0,85.375,85.375,50.0546,-179.6474,1008.9,3.84,-999.0,yes,yes,no,300234064807200,BD2GI,AOML,WESTWOOD_COLUMBIA,North
2018-03-26T10:00:28Z,1522058429,2018,10,0,85.417,85.417,50.052,-179.6518,1009.1,3.84,-999.0,yes,yes,no,300234064807200,BD2GI,AOML,WESTWOOD_COLUMBIA,North
2018-03-26T10:59:31Z,1522061971,2018,11,0,85.458,85.458,50.0508,-179.6578,1009.4,3.84,-999.0,yes,yes,no,300234064807200,BD2GI,AOML,WESTWOOD_COLUMBIA,North
2018-03-26T12:00:00Z,1522065600,2018,12,0,85.5,85.5,50.0494,-179.6658,1009.5,3.84,-999.0,yes,yes,no,300234064807200,BD2GI,AOML,WESTWOOD_COLUMBIA,North
2018-03-26T13:00:28Z,1522069229,2018,13,0,85.542,85.542,50.049,-179.6756,1009.9,3.84,-999.0,yes,yes,no,300234064807200,BD2GI,AOML,WESTWOOD_COLUMBIA,North
2018-03-26T13:59:31Z,1522072771,2018,14,0,85.583,85.583,50.0514,-179.6866,1009.8,3.84,-999.0,yes,yes,no,300234064807200,BD2GI,AOML,WESTWOOD_COLUMBIA,North
2018-03-26T15:00:00Z,1522076400,2018,15,0,85.625,85.625,50.0546,-179.6956,1009.8,3.85,-999.0,yes,yes,no,300234064807200,BD2GI,AOML,WESTWOOD_COLUMBIA,North
2018-03-26T16:00:28Z,1522080029,2018,16,0,85.667,85.667,50.0586,-179.7034,1010.0,3.85,-999.0,yes,yes,no,300234064807200,BD2GI,AOML,WESTWOOD_COLUMBIA,North
2018-03-26T16:59:31Z,1522083571,2018,17,0,85.708,85.708,50.0636,-179.709,1010.1,3.85,-999.0,yes,yes,no,300234064807200,BD2GI,AOML,WESTWOOD_COLUMBIA,North
2018-03-26T18:00:00Z,1522087200,2018,18,0,85.75,85.75,50.0678,-179.7128,1010.4,3.85,-999.0,yes,yes,no,300234064807200,BD2GI,AOML,WESTWOOD_COLUMBIA,North
2018-03-26T19:00:28Z,1522090829,2018,19,0,85.792,85.792,50.0724,-179.7146,1010.9,3.83,-999.0,yes,yes,no,300234064807200,BD2GI,AOML,WESTWOOD_COLUMBIA,North
2018-03-26T19:59:31Z,1522094371,2018,20,0,85.833,85.833,50.0728,-179.7136,1011.2,3.85,-999.0,yes,yes,no,300234064807200,BD2GI,AOML,WESTWOOD_COLUMBIA,North
2018-03-26T21:00:00Z,1522098000,2018,21,0,85.875,85.875,50.075,-179.7198,1011.7,3.87,-999.0,yes,yes,no,300234064807200,BD2GI,AOML,WESTWOOD_COLUMBIA,North
2018-03-26T22:00:28Z,1522101629,2018,22,0,85.917,85.917,50.075,-179.7252,1012.0,3.86,-999.0,yes,yes,no,300234064807200,BD2GI,AOML,WESTWOOD_COLUMBIA,North
2018-03-26T22:59:31Z,1522105171,2018,23,0,85.958,85.958,50.0732,-179.7302,1012.1,3.89,-999.0,yes,yes,no,300234064807200,BD2GI,AOML,WESTWOOD_COLUMBIA,North
2018-03-27T00:00:00Z,1522108800,2018,0,0,86.0,86.0,50.0708,-179.7352,1012.0,4.0,-999.0,yes,yes,no,300234064807200,BD2GI,AOML,WESTWOOD_COLUMBIA,North
2018-03-27T01:00:28Z,1522112429,2018,1,0,86.042,86.042,50.0676,-179.7436,1012.1,3.99,-999.0,yes,yes,no,300234064807200,BD2GI,AOML,WESTWOOD_COLUMBIA,North
2018-03-27T01:59:31Z,1522115971,2018,2,0,86.083,86.083,50.065,-179.7518,1011.9,3.99,-999.0,yes,yes,no,300234064807200,BD2GI,AOML,WESTWOOD_COLUMBIA,North
2018-03-27T03:00:00Z,1522119600,2018,3,0,86.125,86.125,50.0644,-179.76,1011.9,3.98,-999.0,yes,yes,no,300234064807200,BD2GI,AOML,WESTWOOD_COLUMBIA,North
2018-03-27T04:00:28Z,1522123229,2018,4,0,86.167,86.167,50.065,-179.7666,1012.2,3.97,-999.0,yes,yes,no,300234064807200,BD2GI,AOML,WESTWOOD_COLUMBIA,North
2018-03-27T04:59:31Z,1522126771,2018,5,0,86.208,86.208,50.0674,-179.7722,1012.2,3.95,-999.0,yes,yes,no,300234064807200,BD2GI,AOML,WESTWOOD_COLUMBIA,North
2018-03-27T06:00:00Z,1522130400,2018,6,0,86.25,86.25,50.0708,-179.777,1012.3,3.93,-999.0,yes,yes,no,300234064807200,BD2GI,AOML,WESTWOOD_COLUMBIA,North
2018-03-27T07:00:28Z,1522134029,2018,7,0,86.292,86.292,50.0734,-179.78,1012.5,3.92,-999.0,yes,yes,no,300234064807200,BD2GI,AOML,WESTWOOD_COLUMBIA,North
2018-03-27T07:59:31Z,1522137571,2018,8,0,86.333,86.333,50.0762,-179.7838,1013.0,3.91,-999.0,yes,yes,no,300234064807200,BD2GI,AOML,WESTWOOD_COLUMBIA,North
2018-03-27T09:00:00Z,1522141200,2018,9,0,86.375,86.375,50.078,-179.7886,1013.3,3.88,-999.0,yes,yes,no,300234064807200,BD2GI,AOML,WESTWOOD_COLUMBIA,North
2018-03-27T10:00:28Z,1522144829,2018,10,0,86.417,86.417,50.0788,-179.7922,1013.6,3.89,-999.0,yes,yes,no,300234064807200,BD2GI,AOML,WESTWOOD_COLUMBIA,North
2018-03-27T10:59:31Z,1522148371,2018,11,0,86.458,86.458,50.0792,-179.7952,1013.7,3.88,-999.0,yes,yes,no,300234064807200,BD2GI,AOML,WESTWOOD_COLUMBIA,North
2018-03-27T12:00:00Z,1522152000,2018,12,0,86.5,86.5,50.0788,-179.7966,1013.8,3.88,-999.0,yes,yes,no,300234064807200,BD2GI,AOML,WESTWOOD_COLUMBIA,North
2018-03-27T13:00:28Z,1522155629,2018,13,0,86.542,86.542,50.0778,-179.7974,1014.0,3.88,-999.0,yes,yes,no,300234064807200,BD2GI,AOML,WESTWOOD_COLUMBIA,North
2018-03-27T13:59:31Z,1522159171,2018,14,0,86.583,86.583,50.0756,-179.8002,1013.9,3.87,-999.0,yes,yes,no,300234064807200,BD2GI,AOML,WESTWOOD_COLUMBIA,North
2018-03-27T15:00:00Z,1522162800,2018,15,0,86.625,86.625,50.0736,-179.8054,1014.0,3.86,-999.0,yes,yes,no,300234064807200,BD2GI,AOML,WESTWOOD_COLUMBIA,North
2018-03-27T16:00:28Z,1522166429,2018,16,0,86.667,86.667,50.0704,-179.8132,1014.0,3.85,-999.0,yes,yes,no,300234064807200,BD2GI,AOML,WESTWOOD_COLUMBIA,North
2018-03-27T16:59:31Z,1522169971,2018,17,0,86.708,86.708,50.0692,-179.825,1014.1,3.84,-999.0,yes,yes,no,300234064807200,BD2GI,AOML,WESTWOOD_COLUMBIA,North
2018-03-27T18:00:00Z,1522173600,2018,18,0,86.75,86.75,50.07,-179.8326,1014.4,3.84,-999.0,yes,yes,no,300234064807200,BD2GI,AOML,WESTWOOD_COLUMBIA,North
2018-03-27T19:00:28Z,1522177229,2018,19,0,86.792,86.792,50.0724,-179.8408,1014.9,3.85,-999.0,yes,yes,no,300234064807200,BD2GI,AOML,WESTWOOD_COLUMBIA,North
2018-03-27T19:59:31Z,1522180771,2018,20,0,86.833,86.833,50.0754,-179.8464,1015.2,3.87,-999.0,yes,yes,no,300234064807200,BD2GI,AOML,WESTWOOD_COLUMBIA,North
2018-03-27T21:00:00Z,1522184400,2018,21,0,86.875,86.875,50.078,-179.853,1016.0,3.88,-999.0,yes,yes,no,300234064807200,BD2GI,AOML,WESTWOOD_COLUMBIA,North
2018-03-27T22:00:28Z,1522188029,2018,22,0,86.917,86.917,50.0812,-179.859,1016.5,3.93,-999.0,yes,yes,no,300234064807200,BD2GI,AOML,WESTWOOD_COLUMBIA,North
2018-03-27T22:59:31Z,1522191571,2018,23,0,86.958,86.958,50.0846,-179.8628,1016.8,4.0,-999.0,yes,yes,no,300234064807200,BD2GI,AOML,WESTWOOD_COLUMBIA,North
2018-03-28T00:00:00Z,1522195200,2018,0,0,87.0,87.0,50.0866,-179.8658,1016.8,3.95,-999.0,yes,yes,no,300234064807200,BD2GI,AOML,WESTWOOD_COLUMBIA,North
2018-03-28T01:00:28Z,1522198829,2018,1,0,87.042,87.042,50.0878,-179.8676,1016.6,4.03,-999.0,yes,yes,no,300234064807200,BD2GI,AOML,WESTWOOD_COLUMBIA,North
2018-03-28T01:59:31Z,1522202371,2018,2,0,87.083,87.083,50.088,-179.8664,1016.8,4.03,-999.0,yes,yes,no,300234064807200,BD2GI,AOML,WESTWOOD_COLUMBIA,North
2018-03-28T03:00:00Z,1522206000,2018,3,0,87.125,87.125,50.0866,-179.8652,1017.0,4.02,-999.0,yes,yes,no,300234064807200,BD2GI,AOML,WESTWOOD_COLUMBIA,North
2018-03-28T04:00:28Z,1522209629,2018,4,0,87.167,87.167,50.0848,-179.8658,1017.0,4.06,-999.0,yes,yes,no,300234064807200,BD2GI,AOML,WESTWOOD_COLUMBIA,North
2018-03-28T04:59:31Z,1522213171,2018,5,0,87.208,87.208,50.084,-179.8678,1017.6,4.05,-999.0,yes,yes,no,300234064807200,BD2GI,AOML,WESTWOOD_COLUMBIA,North
2018-03-28T06:00:00Z,1522216800,2018,6,0,87.25,87.25,50.0836,-179.8694,1018.4,3.99,-999.0,yes,yes,no,300234064807200,BD2GI,AOML,WESTWOOD_COLUMBIA,North
2018-03-28T07:00:28Z,1522220429,2018,7,0,87.292,87.292,50.0844,-179.8724,1018.9,3.98,-999.0,yes,yes,no,300234064807200,BD2GI,AOML,WESTWOOD_COLUMBIA,North
2018-03-28T07:59:31Z,1522223971,2018,8,0,87.333,87.333,50.0852,-179.8764,1019.7,3.99,-999.0,yes,yes,no,300234064807200,BD2GI,AOML,WESTWOOD_COLUMBIA,North
2018-03-28T09:00:00Z,1522227600,2018,9,0,87.375,87.375,50.0858,-179.882,1020.1,3.99,-999.0,yes,yes,no,300234064807200,BD2GI,AOML,WESTWOOD_COLUMBIA,North
2018-03-28T10:00:28Z,1522231229,2018,10,0,87.417,87.417,50.0866,-179.8868,1020.3,3.98,-999.0,yes,yes,no,300234064807200,BD2GI,AOML,WESTWOOD_COLUMBIA,North
2018-03-28T10:59:31Z,1522234771,2018,11,0,87.458,87.458,50.0884,-179.8912,1020.6,3.98,-999.0,yes,yes,no,300234064807200,BD2GI,AOML,WESTWOOD_COLUMBIA,North
2018-03-28T12:00:00Z,1522238400,2018,12,0,87.5,87.5,50.0894,-179.8962,1020.8,3.98,-999.0,yes,yes,no,300234064807200,BD2GI,AOML,WESTWOOD_COLUMBIA,North
2018-03-28T13:00:28Z,1522242029,2018,13,0,87.542,87.542,50.0918,-179.9022,1021.5,3.97,-999.0,yes,yes,no,300234064807200,BD2GI,AOML,WESTWOOD_COLUMBIA,North
2018-03-28T13:59:31Z,1522245571,2018,14,0,87.583,87.583,50.0952,-179.909,1021.5,3.97,-999.0,yes,yes,no,300234064807200,BD2GI,AOML,WESTWOOD_COLUMBIA,North
2018-03-28T15:00:00Z,1522249200,2018,15,0,87.625,87.625,50.0992,-179.9116,1021.8,3.95,-999.0,yes,yes,no,300234064807200,BD2GI,AOML,WESTWOOD_COLUMBIA,North
2018-03-28T16:00:28Z,1522252829,2018,16,0,87.667,87.667,50.1024,-179.9136,1022.1,3.94,-999.0,yes,yes,no,300234064807200,BD2GI,AOML,WESTWOOD_COLUMBIA,North
2018-03-28T16:59:31Z,1522256371,2018,17,0,87.708,87.708,50.1024,-179.9148,1022.4,3.93,-999.0,yes,yes,no,300234064807200,BD2GI,AOML,WESTWOOD_COLUMBIA,North
2018-03-28T18:00:00Z,1522260000,2018,18,0,87.75,87.75,50.1022,-179.9172,1022.8,3.93,-999.0,yes,yes,no,300234064807200,BD2GI,AOML,WESTWOOD_COLUMBIA,North
2018-03-28T19:00:28Z,1522263629,2018,19,0,87.792,87.792,50.104,-179.9226,1023.3,3.93,-999.0,yes,yes,no,300234064807200,BD2GI,AOML,WESTWOOD_COLUMBIA,North
2018-03-28T19:59:31Z,1522267171,2018,20,0,87.833,87.833,50.1052,-179.9258,1023.7,3.93,-999.0,yes,yes,no,300234064807200,BD2GI,AOML,WESTWOOD_COLUMBIA,North
2018-03-28T21:00:00Z,1522270800,2018,21,0,87.875,87.875,50.106,-179.9306,1024.2,3.93,-999.0,yes,yes,no,300234064807200,BD2GI,AOML,WESTWOOD_COLUMBIA,North
2018-03-28T22:00:28Z,1522274429,2018,22,0,87.917,87.917,50.1074,-179.9372,1024.5,3.95,-999.0,yes,yes,no,300234064807200,BD2GI,AOML,WESTWOOD_COLUMBIA,North
2018-03-28T22:59:31Z,1522277971,2018,23,0,87.958,87.958,50.1076,-179.9454,1024.5,3.94,-999.0,yes,yes,no,300234064807200,BD2GI,AOML,WESTWOOD_COLUMBIA,North
2018-03-29T00:00:00Z,1522281600,2018,0,0,88.0,88.0,50.1072,-179.952,1024.8,3.95,-999.0,yes,yes,no,300234064807200,BD2GI,AOML,WESTWOOD_COLUMBIA,North
2018-03-29T01:00:28Z,1522285229,2018,1,0,88.042,88.042,50.1064,-179.9592,1024.7,3.97,-999.0,yes,yes,no,300234064807200,BD2GI,AOML,WESTWOOD_COLUMBIA,North
2018-03-29T01:59:31Z,1522288771,2018,2,0,88.083,88.083,50.105,-179.969,1024.5,4.0,-999.0,yes,yes,no,300234064807200,BD2GI,AOML,WESTWOOD_COLUMBIA,North
2018-03-29T03:00:00Z,1522292400,2018,3,0,88.125,88.125,50.105,-179.9774,1024.5,3.99,-999.0,yes,yes,no,300234064807200,BD2GI,AOML,WESTWOOD_COLUMBIA,North
2018-03-29T04:00:28Z,1522296029,2018,4,0,88.167,88.167,50.1094,-179.9938,1024.6,3.98,-999.0,yes,yes,no,300234064807200,BD2GI,AOML,WESTWOOD_COLUMBIA,North
2018-03-29T04:59:31Z,1522299571,2018,5,0,88.208,88.208,50.11,-179.9946,1024.8,3.98,-999.0,yes,yes,no,300234064807200,BD2GI,AOML,WESTWOOD_COLUMBIA,North
2018-03-29T06:00:00Z,1522303200,2018,6,0,88.25,88.25,50.1098,-179.997,1025.0,3.98,-999.0,yes,yes,no,300234064807200,BD2GI,AOML,WESTWOOD_COLUMBIA,North
2018-03-29T07:00:28Z,1522306829,2018,7,0,88.292,88.292,50.1124,179.9994,1025.4,3.96,-999.0,yes,yes,no,300234064807200,BD2GI,AOML,WESTWOOD_COLUMBIA,North
2018-03-29T07:59:31Z,1522310371,2018,8,0,88.333,88.333,50.1156,179.9952,1025.7,3.97,-999.0,yes,yes,no,300234064807200,BD2GI,AOML,WESTWOOD_COLUMBIA,North
2018-03-29T09:00:00Z,1522314000,2018,9,0,88.375,88.375,50.118,179.993,1025.9,3.97,-999.0,yes,yes,no,300234064807200,BD2GI,AOML,WESTWOOD_COLUMBIA,North
2018-03-29T10:00:28Z,1522317629,2018,10,0,88.417,88.417,50.1194,179.9932,1025.8,4.0,-999.0,yes,yes,no,300234064807200,BD2GI,AOML,WESTWOOD_COLUMBIA,North
2018-03-29T10:59:31Z,1522321171,2018,11,0,88.458,88.458,50.1186,179.9916,1025.8,3.99,-999.0,yes,yes,no,300234064807200,BD2GI,AOML,WESTWOOD_COLUMBIA,North
2018-03-29T12:00:00Z,1522324800,2018,12,0,88.5,88.5,50.1182,179.9904,1025.7,3.99,-999.0,yes,yes,no,300234064807200,BD2GI,AOML,WESTWOOD_COLUMBIA,North
2018-03-29T13:00:28Z,1522328429,2018,13,0,88.542,88.542,50.1164,179.9882,1026.0,3.98,-999.0,yes,yes,no,300234064807200,BD2GI,AOML,WESTWOOD_COLUMBIA,North
2018-03-29T13:59:31Z,1522331971,2018,14,0,88.583,88.583,50.1132,179.9828,1025.7,3.98,-999.0,yes,yes,no,300234064807200,BD2GI,AOML,WESTWOOD_COLUMBIA,North
2018-03-29T15:00:00Z,1522335600,2018,15,0,88.625,88.625,50.1104,179.9758,1025.2,3.98,-999.0,yes,yes,no,300234064807200,BD2GI,AOML,WESTWOOD_COLUMBIA,North
2018-03-29T16:00:28Z,1522339229,2018,16,0,88.667,88.667,50.107,179.966,1025.4,3.97,-999.0,yes,yes,no,300234064807200,BD2GI,AOML,WESTWOOD_COLUMBIA,North
2018-03-29T16:59:31Z,1522342771,2018,17,0,88.708,88.708,50.104,179.9554,1025.8,3.96,-999.0,yes,yes,no,300234064807200,BD2GI,AOML,WESTWOOD_COLUMBIA,North
2018-03-29T18:00:00Z,1522346400,2018,18,0,88.75,88.75,50.1036,179.9446,1026.0,3.95,-999.0,yes,yes,no,300234064807200,BD2GI,AOML,WESTWOOD_COLUMBIA,North
2018-03-29T19:00:28Z,1522350029,2018,19,0,88.792,88.792,50.1052,179.934,1026.5,3.95,-999.0,yes,yes,no,300234064807200,BD2GI,AOML,WESTWOOD_COLUMBIA,North
2018-03-29T19:59:31Z,1522353571,2018,20,0,88.833,88.833,50.1074,179.9258,1026.7,3.96,-999.0,yes,yes,no,300234064807200,BD2GI,AOML,WESTWOOD_COLUMBIA,North
2018-03-29T21:00:00Z,1522357200,2018,21,0,88.875,88.875,50.1094,179.9222,1026.8,3.98,-999.0,yes,yes,no,300234064807200,BD2GI,AOML,WESTWOOD_COLUMBIA,North
2018-03-29T22:00:28Z,1522360829,2018,22,0,88.917,88.917,50.1108,179.9174,1026.8,3.99,-999.0,yes,yes,no,300234064807200,BD2GI,AOML,WESTWOOD_COLUMBIA,North